Location: Unspecified
(0.0000°N, 0.0000°E)
Time: 14:37:37
(UTC+00:00)

STARLINK-36954 - Pass Details

Date: 04 March 2026
Orbit: 266 x 267 km, 53.2° (Epoch: 6 March)

Event Time Altitude Azimuth Distance (km) Brightness Sun altitude
Rises 19:01:40 0° 218° (SW) 1,842 6.0 -12.4°
Reaches altitude 10° 19:03:33 10° 222° (SW) 1,041 4.8 -12.9°
Maximum altitude 19:05:49 61° 303° (WNW) 298 1.5 -13.5°
Enters shadow 19:07:10 21° 20° (NNE) 662 2.8 -13.8°
